Regional Weather Roundup
Issued by NWS

Home | Current Version | Previous Version | Text Only | Print | Product List | Glossary On
Versions: 1 2 3 4 5 6 7 8 9 10 11 12 13 14 15 16 17 18 19 20 21 22 23 24 25 26 27 28 29 30 31 32 33 34 35 36 37 38 39 40 41 42 43 44 45 46 47 48 49 50
000
ASUS44 KFWD 221815
RWRTX
NORTH TEXAS HOURLY WEATHER ROUNDUP
NATIONAL WEATHER SERVICE FORT WORTH TX
1200 PM CST SUN JAN 22 2017

NOTE: "FAIR" INDICATES FEW OR NO CLOUDS BELOW 12,000 FEET WITH NO
SIGNIFICANT WEATHER AND/OR OBSTRUCTIONS TO VISIBILITY.

TXZ118-119-221900-
DALLAS/FORT WORTH METROPLEX

CITY           SKY/WX    TMP DP  RH WIND       PRES   REMARKS
DFW AIRPORT    CLOUDY    58  45  62 NW23G31   29.64R
6HR MIN TEMP:  51; 6HR MAX TEMP:  60;

DALLAS LOVE    CLOUDY    58  45  62 NW22G35   29.65R
6HR MIN TEMP:  52; 6HR MAX TEMP:  59;

FTW MEACHAM    CLOUDY    58  42  55 NW26G35   29.69R
6HR MIN TEMP:  49; 6HR MAX TEMP:  58;

DAL-EXECUTIVE  CLOUDY    57  45  64 NW26G37   29.65R
6HR MIN TEMP:  51; 6HR MAX TEMP:  58;

FTW-ALLIANCE   CLOUDY    57  42  57 NW24G36   29.69R
6HR MIN TEMP:  47; 6HR MAX TEMP:  57; 6HR PCP: TRACE;

FTW-NAS-JRB    CLOUDY    58  44  60 NW23G29   29.71R
6HR MIN TEMP:  49; 6HR MAX TEMP:  59; 6HR PCP: TRACE;

FTW-SPINKS     PTSUNNY   57  45  62 W29G36    29.71R
ARLINGTON      CLOUDY    57  44  62 W21G32    29.65R
6HR MIN TEMP:  50; 6HR MAX TEMP:  58;

GRAND PRAIRIE  MOSUNNY   57  43  58 W21G32    29.68R
ADDISON        CLOUDY    57  46  67 NW17G35   29.66R
MESQUITE       CLOUDY    55  45  67 NW23G29   29.63R
LANCASTER      CLOUDY    57  45  64 NW26G33   29.66R
6HR MIN TEMP:  50; 6HR MAX TEMP:  57;

$$

TXZ091>094-102>105-117-120-121-131>134-221900-
NORTH CENTRAL TEXAS

CITY           SKY/WX    TMP DP  RH WIND       PRES   REMARKS
SHRMAN/DENISON CLOUDY    55  47  73 NW16G26   29.64R
6HR MIN TEMP:  43; 6HR MAX TEMP:  56;

GAINESVILLE    CLOUDY    55  44  66 NW22G30   29.68R
6HR MIN TEMP:  45; 6HR MAX TEMP:  55;

BOWIE          CLOUDY    56  44  62 NW29G38   29.71R
6HR MIN TEMP:  43; 6HR MAX TEMP:  56;

BRIDGEPORT     CLOUDY    56  45  65 NW17G37   29.76R
6HR MIN TEMP:  44; 6HR MAX TEMP:  56;

DECATUR        CLOUDY    55  42  61 W17G32    29.71R
6HR MIN TEMP:  44; 6HR MAX TEMP:  55;

DENTON         CLOUDY    56  44  64 NW20G31   29.68R
6HR MIN TEMP:  45; 6HR MAX TEMP:  58;

MCKINNEY       CLOUDY    55  47  74 NW20G32   29.64R
6HR MIN TEMP:  48; 6HR MAX TEMP:  55;

BONHAM         CLOUDY    54  45  71 NW18G25   29.59R
GREENVILLE     CLOUDY    55  45  67 NW22G30   29.60R
ROCKWALL       CLOUDY    55  46  69 NW21G38   29.62R
6HR MIN TEMP:  49; 6HR MAX TEMP:  57;

TERRELL        CLOUDY    56  45  66 NW20G31   29.62R
6HR MIN TEMP:  43; 6HR MAX TEMP:  57;

WAXAHACHIE     CLOUDY    56  46  68 NW23G30   29.68R
6HR MIN TEMP:  49; 6HR MAX TEMP:  56;

CLEBURNE       PTSUNNY   55  45  67 W21G29    29.73R
GRANBURY       CLOUDY    58  44  59 NW23G35   29.76R
6HR MIN TEMP:  51; 6HR MAX TEMP:  58;

$$

TXZ083>090-098>101-113>116-127>130-139>142-154-155-221900-
WESTERN NORTH TEXAS

CITY           SKY/WX    TMP DP  RH WIND       PRES   REMARKS
WICHITA FALLS  MOSUNNY   59  39  47 N31G37    29.78R
6HR MIN TEMP:  41; 6HR MAX TEMP:  59;

WF-KICKAPOO    SUNNY     57  40  52 N23G32    29.80S
6HR MIN TEMP:  43; 6HR MAX TEMP:  57;

VERNON         SUNNY     57  36  44 N28G36    29.85R
6HR MIN TEMP:  33; 6HR MAX TEMP:  71;

ABILENE        SUNNY     58  37  45 NW28G37   29.88R
6HR MIN TEMP:  48; 6HR MAX TEMP:  58;

ABILENE-DYESS  SUNNY     58  37  44 N26G36    29.88R
6HR MIN TEMP:  49; 6HR MAX TEMP:  58;

GRAHAM         SUNNY     57  41  54 NW24G37   29.78F
BRECKENRIDGE   SUNNY     60  38  44 NW28G37   29.82F
CISCO          MOSUNNY   55  39  54 NW32      29.82F
RANGER         CLOUDY    54  41  62 NW16G31   29.82R
MINERAL WELLS  CLOUDY    57  42  57 NW25G36   29.75R
6HR MIN TEMP:  47; 6HR MAX TEMP:  59;

STEPHENVILLE   CLOUDY    54  42  64 NW21G29   29.81R
6HR MIN TEMP:  51; 6HR MAX TEMP:  54;

COMANCHE       CLOUDY    57  43  59 NW25G33   29.82S
6HR MIN TEMP:  52; 6HR MAX TEMP:  57;

BROWNWOOD      MOSUNNY   59  39  47 NW24G36   29.84S
COLEMAN        SUNNY     57  37  47 NW25G40   29.87R
$$

TXZ143>147-156>162-174-175-221900-
CENTRAL TEXAS

CITY           SKY/WX    TMP DP  RH WIND       PRES   REMARKS
WACO           PTSUNNY   59  45  59 NW25G40   29.72R
6HR MIN TEMP:  53; 6HR MAX TEMP:  60;

WACO-MCGREGOR  PTSUNNY   60  46  59 NW20G29   29.75R
6HR MIN TEMP:  52; 6HR MAX TEMP:  60;

CORSICANA      PTSUNNY   59  47  64 NW26G37   29.67R
6HR MIN TEMP:  51; 6HR MAX TEMP:  61;

MEXIA          CLOUDY    56  44  64 W22G39    29.67R
HEARNE         PTSUNNY   62  46  56 W28G38    29.71R
6HR MIN TEMP:  54; 6HR MAX TEMP:  62;

CAMERON        MOSUNNY   62  45  53 NW33G41   29.72R
6HR MIN TEMP:  56; 6HR MAX TEMP:  62;

TEMPLE         PTSUNNY   61  45  55 NW25G39   29.74R
6HR MIN TEMP:  56; 6HR MAX TEMP:  61;

KILLEEN        PTSUNNY   59  41  51 NW33G44   29.77R
KILLEEN-SKYLRK PTSUNNY   59  41  51 NW25G38   29.77R
6HR MIN TEMP:  56; 6HR MAX TEMP:  61;

FORT HOOD      PTSUNNY   60  41  50 NW32G40   29.73R
6HR MIN TEMP:  55; 6HR MAX TEMP:  61;

GATESVILLE     CLOUDY    57  41  54 NW20G36   29.79R
HAMILTON       CLOUDY    55  42  60 NW23G32   29.80R
6HR MIN TEMP:  53; 6HR MAX TEMP:  57;

LAMPASAS       MOSUNNY   58  42  55 NW21G33   29.79R
6HR MIN TEMP:  55; 6HR MAX TEMP:  60;

$$

TXZ095>097-106>112-122>126-135>138-148>153-164>167-221900-
EAST TEXAS

CITY           SKY/WX    TMP DP  RH WIND       PRES   REMARKS
PARIS          CLOUDY    57  45  62 NW23G33   29.52R
6HR MIN TEMP:  46; 6HR MAX TEMP:  57;

SULPHUR SPRNGS CLOUDY    57  49  73 NW16G25   29.56S
6HR MIN TEMP:  47; 6HR MAX TEMP:  57;

MOUNT PLEASANT CLOUDY    57  46  65 W16       29.52R
6HR MIN TEMP:  52; 6HR MAX TEMP:  60;

GILMER         CLOUDY    58  40  52 W13G20    29.52R
6HR MIN TEMP:  50; 6HR MAX TEMP:  60;

MINEOLA        CLOUDY    55  46  71 W10G21    29.56R
TYLER          CLOUDY    58  44  60 W18G32    29.56R
6HR MIN TEMP:  51; 6HR MAX TEMP:  60;

LONGVIEW       MOSUNNY   64  40  41 NW20G26   29.48F
6HR MIN TEMP:  53; 6HR MAX TEMP:  64;

MARSHALL       SUNNY     65  37  35 W10G21    29.48F
6HR MIN TEMP:  50; 6HR MAX TEMP:  65;

ATHENS         CLOUDY    55  43  62 NW9G23    29.60R
PALESTINE      SUNNY     60  46  58 W25G35    29.61R
JACKSONVILLE   SUNNY     60  42  51 W15G29    29.56S
HENDERSON      SUNNY     62  39  43 W18G24    29.52F
6HR MIN TEMP:  51; 6HR MAX TEMP:  62;

CENTER         CLEAR     64  37  37 W14G21    29.50F
6HR MIN TEMP:  55; 6HR MAX TEMP:  64;

NACOGDOCHES    SUNNY     63  41  45 W20       29.52S
6HR MIN TEMP:  50; 6HR MAX TEMP:  63;

LUFKIN         SUNNY     63  42  46 W17G26    29.54F
6HR MIN TEMP:  51; 6HR MAX TEMP:  63; 6HR PCP: TRACE;

$$

SUPPLEMENTAL OBSERVATIONS (CENTRAL)

CITY           SKY/WX    TMP DP  RH WIND       PRES   REMARKS
DENISON DAM      N/A     54  45  71 NW23        N/A
CADDO GRASSLND   N/A     57  45  62 NW10G23     N/A
PAT MAYSE LAKE   N/A     57  48  72 NW18        N/A
GREENVILLE       N/A     55  46  71 NW16G24     N/A
CEDAR HILL       N/A     57  45  62 NW12G28     N/A
ATHENS           N/A     57  45  62 NW6G23      N/A
MCGREGOR         N/A     61  45  55 NW15G29     N/A
TEMPLE           N/A     63  43  48 NW9G24      N/A
$$

SUPPLEMENTAL OBSERVATIONS (WEST)

CITY           SKY/WX    TMP DP  RH WIND       PRES   REMARKS
MILLERS CREEK    N/A     57  37  47 N25G35      N/A
POSSUM KINGDOM   N/A     57  39  51 NW17


USA.gov is the U.S. government's official web portal to all federal, state and local government web resources and services.